Weather History for Ft Riley, KS

Change the Weather History Date:

Wednesday, July 17, 2013

  Actual Average (KMHK) Record (KMHK)
Temperature  
Mean Temperature 80 °F 79 °F  
Max Temperature 93 °F 92 °F 105 °F (2006)
Min Temperature 68 °F 67 °F 61 °F (2004)
Degree Days  
Heating Degree Days 0 0  
Month to date heating degree days 0  
Since 1 June heating degree days 11  
Since 1 July heating degree days 0  
Cooling Degree Days 16 14  
Month to date cooling degree days 232  
Year to date cooling degree days 602  
Since 1 June cooling degree days 502  
Growing Degree Days 30 (Base 50)    
Moisture  
Dew Point 67 °F    
Average Humidity 65    
Maximum Humidity 100    
Minimum Humidity 38    
Precipitation  
Precipitation 0.00 in 0.12 in 0.03 in (1999)
Month to date precipitation 2.40  
Year to date precipitation 18.69  
Sea Level Pressure  
Sea Level Pressure 30.24 in    
Wind  
Wind Speed 4 mph (SSE)    
Max Wind Speed 12 mph    
Max Gust Speed -    
Visibility 10 miles    
Events Rain    
T = Trace of Precipitation, MM = Missing Value Source: NWS Daily Summary

Daily Weather History Graph

Daily Weather History Graph

Search for Another Location

Airport:

Trip Planner

Search our weather history database for the weather conditions in past years. The results will help you decide how hot, cold, wet, or windy it might be!

Date:

Astronomy

Jul. 17, 2013 Rise Set
Actual Time 6:15 AM CDT 8:50 PM CDT
Civil Twilight 5:44 AM CDT 9:21 PM CDT
Nautical Twilight 5:05 AM CDT 10:00 PM CDT
Astronomical Twilight 4:22 AM CDT 10:43 PM CDT
Moon 3:41 PM CDT (7/17) 1:22 AM CDT (7/17)
Length of Visible Light 15h 37m
Length of Day
14h 35m
Waxing Gibbous, 67% of the Moon is Illuminated
Jul 17
Waxing Gibbous
Jul 22
Full
Jul 29
Last Quarter
Aug 6
New
Aug 14
First Quarter

Hourly Weather History & Observations

Time (CDT) Temp. Heat Index Dew Point Humidity Pressure Visibility Wind Dir Wind Speed Gust Speed Precip Events Conditions
12:58 AM 76.6 °F - 65.7 °F 69% 30.25 in 10.0 mi Variable 4.6 mph - N/A   Mostly Cloudy
1:58 AM 73.9 °F - 66.6 °F 78% 30.26 in 10.0 mi SW 4.6 mph - N/A   Clear
2:58 AM 73.2 °F - 67.1 °F 81% 30.25 in 10.0 mi South 4.6 mph - N/A   Clear
3:58 AM 71.2 °F - 68.5 °F 91% 30.26 in 10.0 mi Calm Calm - N/A   Clear
4:58 AM 69.1 °F - 68.9 °F 99% 30.26 in 10.0 mi Calm Calm - N/A   Clear
5:58 AM 68.2 °F - 68.2 °F 100% 30.26 in 10.0 mi Calm Calm - N/A   Clear
6:58 AM 69.4 °F - 69.4 °F 100% 30.29 in 10.0 mi Calm Calm - N/A   Clear
7:42 AM 71.6 °F - 69.8 °F 94% 30.33 in 8.0 mi Calm Calm - N/A Rain Light Rain
7:51 AM 71.6 °F - 69.8 °F 94% 30.33 in 8.0 mi Calm Calm - N/A   Clear
7:58 AM 72.9 °F - 68.9 °F 87% 30.30 in 8.0 mi Calm Calm - 0.00 in   Clear
8:58 AM 77.9 °F - 68.7 °F 73% 30.31 in 10.0 mi NE 3.5 mph - N/A   Clear
9:58 AM 81.0 °F 83.4 °F 67.1 °F 63% 30.30 in 10.0 mi North 1.2 mph - N/A   Partly Cloudy
10:58 AM 85.3 °F 88.2 °F 67.3 °F 55% 30.30 in 10.0 mi Variable 3.5 mph - N/A   Partly Cloudy
11:58 AM 86.2 °F 89.4 °F 67.8 °F 54% 30.29 in 10.0 mi Variable 2.3 mph - N/A   Partly Cloudy
12:58 PM 89.2 °F 92.4 °F 67.1 °F 48% 30.27 in 10.0 mi Variable 2.3 mph - N/A   Partly Cloudy
1:58 PM 91.8 °F 94.2 °F 65.7 °F 42% 30.26 in 10.0 mi Variable 2.3 mph - N/A   Clear
2:58 PM 93.0 °F 95.0 °F 64.9 °F 39% 30.22 in 10.0 mi Variable 3.5 mph - N/A   Clear
3:58 PM 93.4 °F 96.1 °F 65.7 °F 40% 30.21 in 9.0 mi SSW 5.8 mph - N/A   Scattered Clouds
4:58 PM 93.6 °F 95.5 °F 64.6 °F 38% 30.19 in 10.0 mi SE 11.5 mph - N/A   Partly Cloudy
5:58 PM 90.9 °F 92.0 °F 63.3 °F 40% 30.17 in 10.0 mi ESE 10.4 mph - N/A   Scattered Clouds
6:58 PM 90.5 °F 92.2 °F 64.6 °F 42% 30.16 in 10.0 mi South 8.1 mph - N/A   Clear
7:58 PM 89.6 °F 91.5 °F 64.8 °F 44% 30.16 in 10.0 mi South 6.9 mph - N/A   Clear
8:58 PM 84.9 °F 86.3 °F 64.6 °F 50% 30.16 in 10.0 mi SE 5.8 mph - N/A   Clear
9:58 PM 82.9 °F 84.4 °F 64.0 °F 53% 30.17 in 10.0 mi SE 8.1 mph - N/A   Clear
10:58 PM 81.3 °F 83.2 °F 65.3 °F 58% 30.17 in 10.0 mi SSE 6.9 mph - N/A   Clear
11:58 PM 79.2 °F - 64.9 °F 62% 30.17 in 10.0 mi South 5.8 mph - N/A   Clear